Wind_Speed
22 23 22 22 22 23 25 26 27 29 29 30 30 30 30 31 32 31 31 31 31 31 31 31 31 30 30 29 30 30 30 31 31 32 32 32 31 31 31 32 32 33 32
23 23 22 21 22 23 25 27 28 28 29 29 29 29 30 32 32 32 32 31 31 32 32 32 32 32 31 31 31 31 32 33 33 34 34 35 35 33 33 33 34 34 35
23 23 23 23 22 23 25 27 28 28 29 28 28 30 30 30 31 31 31 31 32 32 32 32 32 32 33 33 33 33 34 35 35 36 37 37 37 36 35 36 36 36 36
24 24 24 24 23 24 26 27 28 30 29 28 28 29 30 31 32 32 33 33 32 33 33 33 34 34 34 35 35 35 35 36 36 37 38 38 39 38 37 37 37 38 37
25 24 24 25 24 25 26 27 28 29 29 29 29 30 31 32 32 33 34 34 34 35 35 35 35 36 36 36 36 37 37 37 37 38 38 39 39 39 39 38 37 38 39
26 25 25 26 26 25 26 27 29 28 28 29 30 31 31 32 33 34 35 35 35 36 37 37 37 37 37 37 37 38 38 37 37 38 38 39 40 41 41 41 40 40 40
28 27 27 27 28 27 27 27 29 29 29 29 30 31 31 32 33 34 36 36 36 36 37 38 39 38 38 38 38 39 39 39 38 39 40 40 41 42 43 43 43 43 43
28 29 29 29 29 30 29 29 29 29 30 30 31 31 31 31 32 32 33 35 36 37 38 38 39 40 39 39 39 40 40 40 40 41 42 42 43 44 45 46 46 46 45
29 29 30 31 31 31 31 31 30 30 30 30 30 31 31 31 31 33 34 35 35 35 36 37 39 40 40 41 41 40 41 41 42 42 44 44 45 47 47 48 48 48 48
30 30 30 31 31 32 32 32 32 30 30 31 31 32 32 33 34 35 36 36 36 36 36 37 39 39 41 41 41 42 42 42 43 43 45 46 47 48 49 50 50 51 51
31 31 32 32 32 33 33 33 33 32 32 33 33 33 34 35 36 36 37 38 38 38 39 39 40 41 42 43 43 43 44 44 45 46 46 47 49 50 51 52 53 53 54
31 31 32 33 34 34 35 35 35 35 35 35 35 36 36 37 37 38 39 39 39 39 40 41 42 43 43 44 45 46 46 47 47 48 49 49 51 52 52 53 53 54 55
32 32 33 33 34 35 36 36 36 37 38 38 38 38 39 39 39 39 40 41 41 42 43 44 45 45 46 47 48 48 49 50 50 50 51 52 52 53 54 53 54 55 55
33 34 34 35 35 36 37 38 38 39 40 40 40 40 41 41 42 42 42 43 43 44 45 46 47 48 49 49 50 50 51 52 52 52 52 53 53 54 55 55 55 55 56
35 36 36 37 37 38 39 39 40 40 41 42 42 42 43 43 43 44 44 45 45 46 47 48 49 50 50 51 52 52 53 54 54 54 54 54 54 55 56 56 56 56 56
38 38 39 39 39 40 41 41 42 42 43 43 44 44 45 46 46 46 46 46 46 47 48 49 50 50 51 52 54 54 55 55 55 55 55 55 55 56 56 56 56 56 57
40 40 40 40 41 42 42 43 43 44 44 45 45 46 47 48 48 48 48 47 48 48 49 50 50 51 52 53 54 55 55 55 55 55 56 56 56 57 57 57 57 57 57
41 40 41 42 43 43 44 45 45 45 46 46 46 47 47 48 49 49 48 48 49 50 50 51 51 52 53 54 55 55 56 56 56 56 57 57 57 57 57 57 57 56 56
41 41 42 43 43 44 45 46 46 46 46 46 46 47 47 48 48 49 50 50 51 51 52 53 54 54 54 55 55 56 56 56 56 57 57 57 57 57 57 56 56 56 56
42 42 43 43 44 45 46 46 46 46 47 47 47 47 48 48 49 49 50 50 51 53 54 54 55 55 55 55 55 56 56 56 57 57 56 56 56 56 55 55 55 55 55
41 41 42 43 44 45 46 46 46 47 47 48 47 48 48 49 49 50 50 51 52 53 53 54 54 54 54 54 54 54 54 55 55 55 54 54 54 54 54 54 54 54 54
39 40 41 42 43 45 46 46 46 47 48 48 48 48 49 49 49 49 50 51 52 52 52 52 52 52 53 53 53 53 53 53 53 52 52 52 52 52 52 52 53 53 53
39 40 41 41 43 44 45 45 46 46 47 48 48 48 48 48 49 50 50 51 51 51 52 51 51 51 51 52 51 51 51 50 50 50 50 50 51 51 51 51 52 52 52
38 39 40 40 41 42 43 44 45 45 46 47 47 48 48 48 49 49 50 50 50 50 51 50 50 50 50 49 48 48 48 48 48 48 48 49 49 48 48 48 48 49 49
38 38 38 39 40 41 42 43 44 45 45 46 47 48 48 49 49 49 49 49 49 49 49 49 48 48 47 46 46 46 45 46 46 47 47 46 46 45 45 46 46 46 46
36 37 38 39 40 40 41 42 44 44 45 46 47 48 48 48 48 48 48 48 48 48 48 47 47 46 45 44 44 45 44 44 45 45 44 44 44 44 44 44 44 44 44
Wind_Direction
238 237 238 237 237 237 235 235 236 236 235 238 237 237 238 239 240 244 246 246 248 250 252 253 255 256 257 257 258 258 257 256 255 256 257 258 259 263 264 265 268 269 269
239 237 238 237 240 238 236 238 236 239 237 238 237 238 241 241 242 244 246 247 249 252 253 255 256 256 257 258 259 259 258 257 257 259 259 260 261 264 265 266 268 270 271
239 239 240 241 242 242 241 241 242 243 240 240 241 240 241 241 241 244 248 250 251 253 254 255 257 257 258 259 260 260 260 259 260 261 262 262 262 265 267 268 269 271 272
240 241 241 242 241 242 244 246 247 245 243 243 243 241 241 242 243 246 249 250 252 253 253 255 257 258 260 261 261 262 262 262 262 263 264 265 265 267 268 268 269 270 272
240 241 241 242 241 243 245 247 248 247 248 248 247 245 245 245 245 247 249 251 252 253 254 256 258 259 261 262 263 263 263 264 264 265 265 266 267 269 270 270 270 270 271
240 242 244 244 244 244 246 247 246 247 249 250 250 248 248 248 248 249 251 252 255 256 257 257 259 260 262 263 264 265 264 264 266 265 266 267 268 269 269 271 272 273 272
242 242 244 245 245 246 249 248 248 249 250 250 249 248 249 251 252 253 254 254 256 257 258 258 258 260 262 263 264 265 264 265 266 267 267 268 269 270 271 272 273 274 274
243 243 244 245 247 249 251 249 250 252 253 253 253 252 252 254 254 255 257 257 258 259 259 260 260 260 262 263 264 264 265 266 267 268 268 268 269 270 272 274 274 274 275
244 245 245 246 248 249 252 251 251 253 255 256 255 254 254 255 256 257 259 260 261 260 261 261 262 261 261 262 263 264 265 267 267 268 269 269 270 272 273 275 275 275 276
244 244 246 248 249 249 251 251 251 252 254 255 256 257 257 257 259 261 262 262 263 262 262 263 262 262 262 262 263 265 266 269 269 269 270 270 271 272 274 274 275 276 276
244 245 246 248 249 248 250 251 251 253 255 257 258 259 259 259 260 260 262 262 262 262 262 262 262 264 265 265 265 266 267 270 270 270 271 271 271 272 274 275 275 276 276
246 246 247 248 249 249 250 251 252 254 255 257 258 259 259 260 261 262 263 264 263 263 263 263 264 264 265 265 266 267 268 270 271 271 272 272 273 273 274 275 276 276 276
247 247 248 249 250 250 250 252 254 256 257 258 259 260 261 261 263 264 265 266 266 265 266 265 265 265 265 265 266 268 269 270 270 271 272 273 274 274 275 275 275 276 276
248 249 250 251 251 252 252 253 255 257 259 259 260 261 263 264 265 266 267 266 266 266 266 266 266 267 267 267 268 268 269 269 270 271 273 274 275 275 275 275 276 276 277
250 250 251 252 254 255 254 255 257 259 260 260 261 263 264 265 267 267 268 267 267 267 267 267 268 268 268 268 269 270 270 271 271 272 273 274 274 275 276 276 276 277 278
252 252 252 253 254 256 256 258 259 261 262 262 263 265 266 267 268 268 269 268 268 268 268 269 269 269 269 269 270 271 271 271 272 273 273 274 275 276 276 277 277 277 278
254 254 255 255 256 258 259 261 262 263 264 265 266 267 267 269 269 270 269 269 269 269 269 270 270 270 270 271 271 271 271 272 272 273 274 275 276 276 276 277 277 277 277
254 255 256 256 257 259 261 262 265 266 267 267 267 269 269 269 270 270 270 270 271 271 271 271 271 272 273 273 273 273 273 273 274 274 275 276 277 277 277 277 277 277 277
255 256 257 258 258 260 262 264 266 267 268 268 269 269 270 271 271 270 271 272 272 272 272 272 272 273 274 275 274 274 273 274 274 275 276 277 277 277 276 277 277 277 277
256 257 258 259 260 261 263 265 266 267 268 269 270 270 271 272 272 272 272 273 273 273 273 274 274 274 275 275 274 274 274 274 275 276 276 277 277 276 276 277 277 277 277
257 258 259 260 261 262 264 265 266 267 269 269 270 271 271 272 273 273 274 274 274 274 274 275 275 275 275 275 275 275 275 275 276 277 277 276 276 276 276 276 277 277 277
258 259 260 261 262 263 264 266 267 268 269 270 270 271 271 272 273 273 274 274 275 275 275 275 275 275 275 275 275 275 275 275 276 276 276 276 275 276 275 276 277 277 277
259 261 261 262 263 264 265 266 268 269 270 270 271 271 272 272 273 274 275 275 275 275 275 275 275 275 275 275 274 274 274 275 275 276 276 276 276 275 276 276 277 277 278
262 262 264 265 265 266 267 268 269 270 271 272 272 273 273 274 274 275 275 275 275 275 275 276 276 275 275 274 274 274 274 274 275 276 276 276 277 277 278 277 278 278 279
263 263 264 266 266 267 269 270 271 271 272 273 273 273 274 274 275 275 275 275 275 275 276 276 276 276 275 273 273 274 274 275 276 277 277 278 278 278 278 277 278 279 279
262 263 265 266 267 269 270 271 271 272 273 273 274 274 274 275 275 275 275 275 275 275 275 276 275 275 274 273 273 274 275 277 278 278 278 278 278 278 279 279 279 280 279
Height
5729 5731 5733 5735 5736 5739 5741 5745 5747 5750 5752 5755 5758 5760 5762 5765 5768 5770 5772 5774 5776 5778 5779 5781 5782 5783 5784 5784 5785 5785 5786 5787 5788 5789 5789 5790 5790 5791 5791 5792 5792 5792 5792
5725 5726 5728 5730 5732 5734 5737 5740 5742 5744 5747 5749 5752 5755 5757 5759 5761 5763 5766 5768 5770 5771 5772 5774 5775 5776 5777 5777 5778 5778 5779 5780 5781 5782 5782 5783 5784 5784 5784 5784 5784 5784 5784
5720 5722 5724 5725 5727 5730 5732 5735 5737 5738 5741 5743 5746 5748 5750 5752 5754 5757 5759 5760 5762 5764 5766 5767 5768 5769 5769 5770 5771 5771 5772 5773 5773 5774 5775 5775 5776 5777 5777 5776 5776 5776 5776
5716 5717 5719 5721 5723 5725 5727 5729 5731 5733 5735 5737 5739 5741 5743 5745 5748 5750 5751 5753 5755 5756 5758 5759 5760 5761 5762 5762 5763 5763 5764 5764 5765 5766 5766 5767 5768 5768 5769 5769 5768 5768 5767
5711 5712 5714 5716 5718 5720 5722 5723 5725 5727 5729 5731 5732 5734 5736 5738 5740 5742 5744 5746 5747 5748 5750 5751 5752 5753 5754 5754 5755 5755 5756 5756 5756 5757 5758 5758 5758 5758 5759 5759 5760 5759 5758
5705 5707 5708 5710 5712 5714 5716 5718 5720 5721 5723 5724 5726 5727 5729 5731 5733 5734 5736 5738 5739 5740 5741 5743 5744 5744 5745 5746 5746 5747 5747 5748 5748 5748 5749 5749 5749 5749 5749 5749 5749 5749 5749
5699 5701 5702 5704 5706 5708 5710 5711 5713 5715 5717 5718 5719 5720 5722 5724 5725 5726 5728 5729 5730 5731 5732 5733 5734 5735 5736 5737 5737 5738 5738 5738 5739 5739 5739 5739 5739 5739 5739 5738 5738 5738 5738
5692 5694 5696 5698 5700 5701 5703 5704 5706 5708 5709 5711 5712 5713 5715 5716 5717 5718 5719 5720 5721 5722 5723 5723 5724 5725 5726 5727 5728 5728 5728 5728 5729 5729 5729 5729 5729 5728 5728 5727 5727 5727 5727
5686 5687 5689 5691 5693 5694 5696 5697 5699 5701 5702 5703 5704 5706 5707 5708 5709 5709 5710 5711 5712 5712 5713 5714 5714 5715 5716 5717 5718 5718 5718 5718 5718 5718 5718 5718 5717 5717 5716 5715 5715 5714 5714
5678 5680 5682 5684 5685 5687 5689 5690 5692 5693 5695 5696 5697 5698 5698 5699 5700 5700 5701 5702 5702 5703 5703 5703 5704 5705 5706 5706 5707 5707 5707 5708 5707 5707 5707 5706 5705 5705 5704 5703 5702 5701 5700
5671 5673 5675 5676 5678 5680 5681 5683 5684 5686 5687 5688 5688 5689 5689 5690 5690 5691 5691 5692 5692 5693 5693 5693 5694 5694 5695 5695 5696 5696 5696 5696 5696 5695 5694 5694 5692 5692 5691 5689 5688 5687 5685
5663 5664 5666 5668 5670 5672 5673 5675 5676 5678 5678 5679 5679 5680 5680 5680 5681 5681 5681 5681 5682 5682 5682 5682 5682 5683 5683 5683 5684 5684 5684 5683 5683 5683 5682 5680 5679 5678 5677 5675 5673 5672 5670
5655 5656 5658 5660 5661 5663 5665 5667 5668 5668 5669 5670 5670 5670 5670 5670 5671 5670 5670 5670 5670 5670 5670 5670 5671 5671 5671 5671 5671 5671 5671 5670 5670 5669 5668 5667 5665 5664 5662 5660 5658 5656 5654
5646 5648 5649 5651 5653 5654 5656 5657 5658 5659 5659 5660 5660 5660 5660 5660 5660 5659 5659 5659 5658 5658 5658 5658 5658 5658 5658 5657 5657 5657 5657 5656 5656 5655 5653 5652 5650 5648 5647 5645 5643 5641 5639
5636 5638 5640 5641 5643 5644 5646 5647 5648 5648 5649 5649 5649 5649 5649 5648 5648 5647 5647 5647 5646 5646 5645 5645 5645 5644 5644 5644 5643 5643 5642 5641 5641 5639 5638 5637 5635 5633 5631 5629 5628 5625 5623
5626 5628 5629 5631 5632 5634 5635 5636 5637 5637 5637 5637 5637 5637 5637 5637 5636 5635 5635 5634 5633 5633 5632 5631 5631 5630 5630 5629 5628 5627 5626 5625 5625 5624 5622 5621 5619 5617 5615 5614 5612 5610 5608
5615 5617 5619 5620 5621 5623 5624 5624 5625 5625 5625 5625 5625 5625 5624 5624 5623 5623 5622 5621 5620 5619 5618 5617 5616 5616 5615 5613 5612 5611 5610 5610 5609 5608 5606 5605 5604 5601 5599 5598 5596 5594 5591
5604 5606 5607 5609 5610 5611 5612 5612 5613 5613 5613 5612 5612 5611 5611 5610 5609 5609 5608 5607 5606 5606 5605 5603 5602 5601 5600 5598 5597 5595 5594 5594 5593 5592 5590 5589 5587 5585 5583 5581 5580 5578 5576
5593 5594 5596 5597 5598 5599 5599 5600 5600 5600 5600 5599 5599 5598 5597 5597 5596 5595 5594 5593 5592 5591 5590 5589 5587 5586 5585 5583 5581 5579 5578 5578 5577 5576 5574 5572 5570 5569 5566 5564 5563 5562 5561
5581 5582 5584 5585 5586 5587 5587 5587 5587 5587 5587 5586 5586 5585 5584 5583 5583 5581 5580 5579 5578 5577 5575 5574 5572 5570 5569 5567 5565 5563 5562 5562 5561 5560 5558 5556 5554 5552 5549 5548 5547 5546 5545
5568 5570 5571 5572 5573 5574 5574 5574 5574 5574 5573 5572 5572 5571 5570 5569 5568 5567 5566 5564 5563 5562 5560 5559 5557 5555 5553 5552 5550 5548 5546 5545 5544 5544 5542 5540 5538 5536 5534 5532 5531 5530 5529
5556 5557 5559 5560 5560 5561 5561 5561 5561 5560 5560 5559 5559 5557 5556 5555 5553 5552 5551 5549 5547 5546 5545 5543 5542 5540 5538 5536 5534 5533 5531 5529 5528 5528 5527 5525 5523 5521 5519 5518 5516 5515 5513
5544 5545 5546 5547 5547 5547 5547 5548 5547 5547 5546 5545 5544 5543 5542 5540 5539 5537 5536 5534 5532 5530 5529 5528 5526 5525 5523 5521 5520 5518 5517 5515 5513 5513 5511 5510 5508 5506 5505 5503 5501 5500 5498
5532 5533 5534 5534 5534 5534 5534 5534 5533 5533 5532 5531 5530 5529 5527 5526 5524 5522 5521 5519 5517 5515 5514 5513 5511 5510 5509 5507 5505 5504 5502 5501 5499 5498 5497 5495 5493 5492 5490 5489 5487 5485 5484
5520 5521 5521 5522 5522 5521 5521 5520 5519 5519 5518 5517 5516 5514 5513 5511 5509 5507 5506 5504 5503 5500 5499 5498 5496 5495 5494 5493 5491 5489 5489 5487 5486 5484 5483 5482 5480 5478 5477 5475 5473 5472 5470
5508 5509 5509 5509 5509 5508 5508 5507 5506 5505 5504 5503 5501 5500 5498 5496 5494 5492 5491 5489 5488 5486 5484 5483 5481 5480 5480 5478 5477 5476 5475 5473 5472 5470 5469 5468 5467 5465 5464 5462 5460 5459 5457